GW4712 Weather Reports


time (UTC)temp
C
wind
direction
speed
KPH
gust
KPH
rain 1hr
cm
rain 24hr
cm
rain mn
cm
humidity
%
barometer
mb
20260831170418 28 254 0.0 0.0 0.00 0.00 0.00 78 1021.3
20260831165914 28 293 0.0 0.0 0.00 0.00 0.00 79 1021.3
20260831165410 27 210 0.0 0.0 0.00 0.00 0.00 79 1021.4
20260831164906 27 244 0.0 0.0 0.00 0.00 0.00 79 1021.4
20260831164402 27 300 0.0 0.0 0.00 0.00 0.00 80 1021.2
20260831163857 27 248 0.0 0.0 0.00 0.00 0.00 81 1021.1
20260831163353 27 302 0.0 0.0 0.00 0.00 0.00 82 1021.3
20260831162851 26 277 0.0 0.0 0.00 0.00 0.00 82 1021.4
20260831162347 26 304 0.0 0.0 0.00 0.00 0.00 81 1021.5
20260831161845 26 198 0.0 0.0 0.00 0.00 0.00 82 1021.6
20260831161342 26 243 0.0 0.0 0.00 0.00 0.00 82 1021.5
20260831160837 26 268 0.0 0.0 0.00 0.00 0.00 83 1021.4
20260831160337 26 200 0.0 0.0 0.00 0.00 0.00 85 1021.5
20260831155833 26 51 0.0 0.0 0.00 0.00 0.00 86 1021.6
20260831155332 25 243 0.0 0.0 0.00 0.00 0.00 87 1021.5
20260831154828 25 52 0.0 0.0 0.00 0.00 0.00 89 1021.4
20260831154325 25 51 0.0 0.0 0.00 0.00 0.00 91 1021.6
20260831153823 24 209 0.0 0.0 0.00 0.00 0.00 92 1021.7
20260831153319 23 282 0.0 0.0 0.00 0.00 0.00 92 1021.6
20260831152815 23 177 0.0 0.0 0.00 0.00 0.00 93 1021.7
20260831152310 23 305 0.0 0.0 0.00 0.00 0.00 93 1021.6
20260831151805 23 27 0.0 0.0 0.00 0.00 0.00 94 1021.5
20260831151304 23 27 0.0 0.0 0.00 0.00 0.00 94 1021.5
20260831150800 23 26 0.0 0.0 0.00 0.00 0.00 94 1021.7
20260831150255 23 255 0.0 0.0 0.00 0.00 0.00 94 1021.6
20260831145754 23 238 0.0 0.0 0.00 0.00 0.00 94 1021.9
20260831145250 23 193 0.0 0.0 0.00 0.00 0.00 94 1021.6
20260831144746 22 11 0.0 0.0 0.00 0.00 0.00 95 1021.7
20260831144242 22 44 0.0 0.0 0.00 0.00 0.00 95 1021.7
20260831143742 22 21 0.0 0.0 0.00 0.00 0.00 95 1021.7
20260831143237 22 186 0.0 0.0 0.00 0.00 0.00 95 1021.7
20260831142733 22 188 0.0 0.0 0.00 0.00 0.00 95 1021.7
20260831142228 22 166 0.0 0.0 0.00 0.00 0.00 96 1021.7
20260831141727 22 165 0.0 0.0 0.00 0.00 0.00 96 1021.7
20260831141222 22 189 0.0 0.0 0.00 0.00 0.00 96 1021.7
20260831140722 22 189 0.0 0.0 0.00 0.00 0.00 96 1021.5
20260831140217 22 189 0.0 0.0 0.00 0.00 0.00 95 1021.8
20260831135714 22 189 0.0 0.0 0.00 0.00 0.00 96 1021.6
20260831135210 22 189 0.0 0.0 0.00 0.00 0.00 96 1021.6
20260831134706 22 189 0.0 0.0 0.00 0.00 0.00 96 1021.5
20260831134202 22 189 0.0 0.0 0.00 0.00 0.00 96 1021.4
20260831133700 22 189 0.0 0.0 0.00 0.00 0.00 97 1021.5
20260831133150 21 189 0.0 0.0 0.00 0.00 0.00 97 1021.6
20260831132646 21 189 0.0 0.0 0.00 0.00 0.00 97 1021.6
20260831132144 21 189 0.0 0.0 0.00 0.00 0.00 98 1021.6
20260831131639 21 189 0.0 0.0 0.00 0.00 0.00 98 1021.6
20260831131135 21 189 0.0 0.0 0.00 0.00 0.00 99 1021.6
20260831130631 21 189 0.0 0.0 0.00 0.00 0.00 99 1021.4
20260831130126 21 189 0.0 0.0 0.00 0.00 0.00 99 1021.4
20260831125624 20 189 0.0 0.0 0.00 0.00 0.00 99 1021.5
20260831125120 20 189 0.0 0.0 0.00 0.00 0.00 99 1021.4
20260831124616 20 189 0.0 0.0 0.00 0.00 0.00 99 1021.4
20260831124112 20 189 0.0 0.0 0.00 0.00 0.00 99 1021.4
20260831123611 20 189 0.0 0.0 0.00 0.00 0.00 99 1021.4
20260831123106 20 189 0.0 0.0 0.00 0.00 0.00 99 1021.3
20260831122605 20 189 0.0 0.0 0.00 0.00 0.00 99 1021.2
20260831122101 20 189 0.0 0.0 0.00 0.00 0.00 99 1021.2
20260831121600 20 189 0.0 0.0 0.00 0.00 0.00 99 1021.1
20260831121057 19 189 0.0 0.0 0.00 0.00 0.00 99 1021.2
20260831120556 19 189 0.0 0.0 0.00 0.00 0.00 99 1021.1
20260831120052 19 189 0.0 0.0 0.00 0.00 0.00 99 1021.0
20260831115548 19 189 0.0 0.0 0.00 0.00 0.00 99 1020.9
20260831115043 19 189 0.0 0.0 0.00 0.00 0.00 99 1021.2
20260831114542 19 189 0.0 0.0 0.00 0.00 0.00 99 1021.0
20260831114037 19 189 0.0 0.0 0.00 0.00 0.00 99 1021.1
20260831113536 19 189 0.0 0.0 0.00 0.00 0.00 99 1021.2
20260831113032 18 189 0.0 0.0 0.00 0.00 0.00 99 1020.9
20260831112531 18 189 0.0 0.0 0.00 0.00 0.00 99 1021.0
20260831112026 18 189 0.0 0.0 0.00 0.00 0.00 99 1020.8
20260831111522 18 189 0.0 0.0 0.00 0.00 0.00 99 1020.8
20260831111018 18 189 0.0 0.0 0.00 0.00 0.00 99 1020.7
20260831110513 18 189 0.0 0.0 0.00 0.00 0.00 99 1020.7
20260831110008 18 189 0.0 0.0 0.00 0.00 0.00 99 1020.5
20260831105508 18 189 0.0 0.0 0.00 0.00 0.00 99 1020.6
20260831105003 18 189 0.0 0.0 0.00 0.00 0.00 99 1020.5
20260831104459 18 189 0.0 0.0 0.00 0.00 0.00 99 1020.6
20260831103954 18 189 0.0 0.0 0.00 0.00 0.00 99 1020.5
20260831103454 18 189 0.0 0.0 0.00 0.00 0.00 99 1020.4
20260831102950 18 189 0.0 0.0 0.00 0.00 0.00 99 1020.4
20260831102445 18 189 0.0 0.0 0.00 0.00 0.00 99 1020.5
20260831101940 18 189 0.0 0.0 0.00 0.00 0.00 99 1020.4
20260831101435 18 189 0.0 0.0 0.00 0.00 0.00 99 1020.7
20260831100931 18 189 0.0 0.0 0.00 0.00 0.00 99 1020.4
20260831100427 18 189 0.0 0.0 0.00 0.00 0.00 99 1020.4
20260831095921 18 189 0.0 0.0 0.00 0.00 0.00 99 1020.5
20260831095420 19 189 0.0 0.0 0.00 0.00 0.00 99 1020.3
20260831094916 19 189 0.0 0.0 0.00 0.00 0.00 99 1020.6
20260831094412 18 189 0.0 0.0 0.00 0.00 0.00 99 1020.5
20260831093908 19 189 0.0 0.0 0.00 0.00 0.00 99 1020.3
20260831093403 19 189 0.0 0.0 0.00 0.00 0.00 99 1020.4
20260831092900 19 189 0.0 0.0 0.00 0.00 0.00 99 1020.3
20260831092355 19 189 0.0 0.0 0.00 0.00 0.00 99 1020.4
20260831091850 19 189 0.0 0.0 0.00 0.00 0.00 99 1020.5
20260831091345 19 189 0.0 0.0 0.00 0.00 0.00 99 1020.3
20260831090840 19 189 0.0 0.0 0.00 0.00 0.00 99 1020.3
20260831090336 19 189 0.0 0.0 0.00 0.00 0.00 99 1020.5
20260831085833 19 189 0.0 0.0 0.00 0.00 0.00 99 1020.4
20260831085332 19 189 0.0 0.0 0.00 0.00 0.00 99 1020.2
20260831084827 19 189 0.0 0.0 0.00 0.00 0.00 99 1020.2
20260831084323 19 189 0.0 0.0 0.00 0.00 0.00 99 1020.2
20260831083819 19 189 0.0 0.0 0.00 0.00 0.00 99 1020.2
20260831083315 19 189 0.0 0.0 0.00 0.00 0.00 99 1020.1
20260831082813 19 189 0.0 0.0 0.00 0.00 0.00 99 1020.1
20260831082308 19 189 0.0 0.0 0.00 0.00 0.00 99 1020.0
20260831081803 20 189 0.0 0.0 0.00 0.00 0.00 99 1020.0
20260831081259 20 189 0.0 0.0 0.00 0.00 0.00 99 1020.1
20260831080755 20 189 0.0 0.0 0.00 0.00 0.00 99 1020.0
20260831080255 20 189 0.0 0.0 0.00 0.00 0.00 99 1020.3
20260831075751 20 189 0.0 0.0 0.00 0.00 0.00 99 1020.2
20260831075246 20 189 0.0 0.0 0.00 0.00 0.00 99 1020.4
20260831074746 20 189 0.0 0.0 0.00 0.00 0.00 99 1020.3
20260831074245 20 189 0.0 0.0 0.00 0.00 0.00 99 1020.3
20260831073742 20 189 0.0 0.0 0.00 0.00 0.00 99 1020.3
20260831073240 20 189 0.0 0.0 0.00 0.00 0.00 99 1020.2
20260831072736 20 189 0.0 0.0 0.00 0.00 0.00 99 1020.0
20260831072232 20 189 0.0 0.0 0.00 0.00 0.00 99 1020.1
20260831071732 20 189 0.0 0.0 0.00 0.00 0.00 99 1020.0
20260831071227 20 189 0.0 0.0 0.00 0.00 0.00 99 1019.9
20260831070726 20 189 0.0 0.0 0.00 0.00 0.00 99 1020.1
20260831070221 20 189 0.0 0.0 0.00 0.00 0.00 99 1020.1
20260831065720 20 189 0.0 0.0 0.00 0.00 0.00 99 1020.2
20260831065218 20 189 0.0 0.0 0.00 0.00 0.00 99 1020.2
20260831064714 20 189 0.0 0.0 0.00 0.00 0.00 99 1019.9
20260831064209 20 189 0.0 0.0 0.00 0.00 0.00 99 1020.0
20260831063705 20 189 0.0 0.0 0.00 0.00 0.00 99 1020.1
20260831063200 20 189 0.0 0.0 0.00 0.00 0.00 99 1020.1
20260831062659 20 189 0.0 0.0 0.00 0.00 0.00 99 1020.3
20260831062159 20 189 0.0 0.0 0.00 0.00 0.00 99 1020.1
20260831061657 20 189 0.0 0.0 0.00 0.00 0.00 99 1020.0
20260831061153 20 189 0.0 0.0 0.00 0.00 0.00 99 1020.2
20260831060649 20 189 0.0 0.0 0.00 0.00 0.00 99 1020.2
20260831060144 21 189 0.0 0.0 0.00 0.00 0.00 99 1020.2
20260831055643 21 189 0.0 0.0 0.00 0.00 0.00 99 1020.2
20260831055138 21 189 0.0 0.0 0.00 0.00 0.00 99 1020.2
20260831054638 21 189 0.0 0.0 0.00 0.00 0.00 99 1020.4
20260831054137 21 189 0.0 0.0 0.00 0.00 0.00 99 1020.5
20260831053632 21 189 0.0 0.0 0.00 0.00 0.00 99 1020.5
20260831053131 21 189 0.0 0.0 0.00 0.00 0.00 99 1020.5
20260831052630 21 189 0.0 0.0 0.00 0.00 0.00 99 1020.6
20260831052129 21 189 0.0 0.0 0.00 0.00 0.00 99 1020.5
20260831051628 21 189 0.0 0.0 0.00 0.00 0.00 99 1020.5
20260831051127 21 189 0.0 0.0 0.00 0.00 0.00 99 1020.6
20260831050627 21 189 0.0 0.0 0.00 0.00 0.00 99 1020.7
20260831050126 21 189 0.0 0.0 0.00 0.00 0.00 99 1020.7
20260831045626 21 189 0.0 0.0 0.00 0.00 0.00 99 1020.7
20260831045121 21 189 0.0 0.0 0.00 0.00 0.00 99 1020.7
20260831044616 21 189 0.0 0.0 0.00 0.00 0.00 99 1020.9
20260831044111 21 189 0.0 0.0 0.00 0.00 0.00 99 1020.9
20260831043607 22 189 0.0 0.0 0.00 0.00 0.00 99 1020.8
20260831043102 22 189 0.0 0.0 0.00 0.00 0.00 99 1020.6
20260831042601 22 189 0.0 0.0 0.00 0.00 0.00 99 1020.7
20260831042056 22 189 0.0 0.0 0.00 0.00 0.00 99 1020.5
20260831041551 22 189 0.0 0.0 0.00 0.00 0.00 99 1020.7
20260831041051 22 189 0.0 0.0 0.00 0.00 0.00 99 1020.8
20260831040545 22 189 0.0 0.0 0.00 0.00 0.00 99 1020.8
20260831040039 22 189 0.0 0.0 0.00 0.03 0.03 99 1020.8
20260831035537 22 189 0.0 0.0 0.00 0.03 0.03 99 1020.8
20260831035032 22 189 0.0 0.0 0.00 0.03 0.03 99 1020.9
20260831034532 22 189 0.0 0.0 0.00 0.03 0.03 99 1020.8
20260831034027 22 189 0.0 0.0 0.00 0.03 0.03 99 1020.8
20260831033523 22 189 0.0 0.0 0.00 0.03 0.03 99 1020.9
20260831033018 22 190 0.0 0.0 0.00 0.03 0.03 99 1020.8
20260831032517 22 190 0.0 0.0 0.00 0.03 0.03 99 1021.3
20260831032013 22 190 0.0 0.0 0.00 0.03 0.03 99 1021.0
20260831031513 22 190 0.0 0.0 0.00 0.03 0.03 99 1021.1
20260831031012 22 190 0.0 0.0 0.00 0.03 0.03 99 1021.1
20260831030512 22 190 0.0 0.0 0.00 0.03 0.03 99 1021.4
20260831030011 22 190 0.0 0.0 0.00 0.03 0.03 99 1021.3
20260831025509 22 190 0.0 0.0 0.00 0.03 0.03 99 1021.1
20260831025005 22 190 0.0 0.0 0.00 0.03 0.03 99 1021.1
20260831024500 22 190 0.0 0.0 0.00 0.03 0.03 99 1021.1
20260831024000 22 190 0.0 0.0 0.00 0.03 0.03 99 1021.3
20260831023458 22 190 0.0 0.0 0.00 0.03 0.03 99 1021.0
20260831022953 22 190 0.0 0.0 0.00 0.03 0.03 99 1021.0
20260831022452 22 190 0.0 0.0 0.00 0.03 0.03 99 1021.0
20260831021947 22 190 0.0 0.0 0.00 0.03 0.03 99 1021.2
20260831021446 22 190 0.0 0.0 0.00 0.03 0.03 99 1021.2
20260831020942 22 190 0.0 0.0 0.00 0.03 0.03 99 1021.1
20260831020442 22 190 0.0 0.0 0.00 0.03 0.03 98 1021.2
20260831015937 22 190 0.0 0.0 0.00 0.03 0.03 98 1021.1
20260831015434 22 190 0.0 0.0 0.00 0.03 0.03 98 1020.9
20260831014933 22 190 0.0 0.0 0.00 0.03 0.03 99 1021.0
20260831014428 22 190 0.0 0.0 0.00 0.03 0.03 99 1020.9
20260831013924 22 190 0.0 0.0 0.00 0.03 0.03 98 1020.9
20260831013419 22 190 0.0 0.0 0.00 0.03 0.03 99 1021.0
20260831012914 22 190 0.0 0.0 0.00 0.03 0.03 98 1020.9
20260831012409 22 190 0.0 0.0 0.00 0.03 0.03 98 1020.8
20260831011909 23 190 0.0 0.0 0.00 0.03 0.03 98 1020.8
20260831011404 23 190 0.0 0.0 0.00 0.03 0.03 98 1020.7
20260831010900 22 190 0.0 0.0 0.00 0.03 0.03 98 1020.7
20260831010359 23 190 0.0 0.0 0.00 0.03 0.03 98 1020.5
20260831005855 23 190 0.0 0.0 0.00 0.03 0.03 98 1020.7
20260831005350 23 190 0.0 0.0 0.00 0.03 0.03 98 1020.4
20260831004845 23 190 0.0 0.0 0.00 0.03 0.03 98 1020.3
20260831004341 23 190 0.0 0.0 0.00 0.03 0.03 98 1020.3
20260831003837 23 190 0.0 0.0 0.00 0.03 0.03 98 1020.4
20260831003333 23 190 0.0 0.0 0.00 0.03 0.03 97 1020.2
20260831002832 23 190 0.0 0.0 0.00 0.03 0.03 97 1020.2
20260831002331 23 190 0.0 0.0 0.00 0.03 0.03 97 1020.2
20260831001827 23 190 0.0 0.0 0.00 0.03 0.03 97 1020.1
20260831001322 23 190 0.0 0.0 0.00 0.03 0.03 97 1020.0
20260831000820 23 190 0.0 0.0 0.00 0.03 0.03 96 1020.1
20260831000320 23 190 0.0 0.0 0.00 0.03 0.03 97 1019.8
20260830235818 23 190 0.0 0.0 0.00 0.03 0.03 96 1019.8
20260830235313 24 190 0.0 0.0 0.00 0.03 0.03 95 1019.9
20260830234808 24 190 0.0 0.0 0.00 0.03 0.03 95 1019.8
20260830234304 25 190 0.0 0.0 0.00 0.03 0.03 94 1019.9
20260830233759 25 190 0.0 0.0 0.00 0.03 0.03 93 1019.8
20260830233255 25 190 0.0 0.0 0.00 0.03 0.03 92 1019.7
20260830232750 25 190 0.0 0.0 0.00 0.03 0.03 92 1019.8
20260830232246 25 190 0.0 0.0 0.00 0.03 0.03 92 1019.6
20260830231742 26 190 0.0 0.0 0.00 0.03 0.03 90 1019.6
20260830231242 26 191 0.0 0.0 0.00 0.03 0.03 88 1019.5
20260830230737 26 190 0.0 0.0 0.00 0.03 0.03 87 1019.6
20260830230232 25 166 0.0 0.0 0.00 0.03 0.03 87 1019.4
20260830225732 25 221 0.0 0.0 0.00 0.03 0.03 89 1019.4
20260830225227 26 221 0.0 0.0 0.00 0.03 0.03 91 1019.4
20260830224726 26 226 0.0 0.0 0.00 0.03 0.03 91 1019.5
20260830224221 26 256 0.0 0.0 0.00 0.03 0.03 90 1019.4
20260830223718 26 256 0.0 0.0 0.00 0.03 0.03 87 1019.5
20260830223214 26 244 0.0 0.0 0.00 0.03 0.03 87 1019.6
20260830222708 26 110 0.0 0.0 0.00 0.03 0.03 90 1019.5
20260830222203 26 109 0.0 0.0 0.00 0.03 0.03 86 1019.6
20260830221659 27 109 0.0 0.0 0.00 0.03 0.03 84 1019.4
20260830221155 27 181 0.0 0.0 0.00 0.03 0.03 84 1019.7
20260830220650 27 189 0.0 0.0 0.00 0.03 0.03 87 1019.5
20260830220149 27 212 0.0 0.0 0.00 0.03 0.03 82 1019.6
20260830215648 27 179 0.0 0.0 0.00 0.03 0.03 81 1019.6
20260830215143 28 178 0.0 0.0 0.00 0.03 0.03 79 1019.5
20260830214638 28 158 0.0 0.0 0.00 0.03 0.03 77 1019.8
20260830214133 28 277 0.0 0.0 0.00 0.03 0.03 78 1019.7
20260830213632 28 40 0.0 0.0 0.00 0.03 0.03 78 1019.7
20260830213128 28 159 0.0 0.0 0.00 0.03 0.03 77 1019.6
20260830212623 28 172 0.0 0.0 0.00 0.03 0.03 75 1019.8
20260830212118 28 190 0.0 0.0 0.00 0.03 0.03 76 1019.7
20260830211613 28 193 0.0 0.0 0.00 0.03 0.03 76 1019.8
20260830211108 28 190 0.0 0.0 0.00 0.03 0.03 76 1019.8
20260830210603 28 174 0.0 0.0 0.00 0.03 0.03 79 1019.8
20260830205559 27 170 0.0 0.0 0.00 0.03 0.03 76 1019.8
20260830205055 28 262 0.0 0.0 0.00 0.03 0.03 75 1019.9
20260830204554 28 130 0.0 0.0 0.00 0.03 0.03 78 1019.7
20260830204053 27 147 0.0 0.0 0.00 0.03 0.03 79 1019.9
20260830203550 27 198 0.0 0.0 0.00 0.03 0.03 77 1019.7
20260830203050 27 207 0.0 0.0 0.00 0.03 0.03 78 1019.9
20260830202550 27 237 0.0 0.0 0.00 0.03 0.03 77 1019.9
20260830202046 27 244 0.0 0.0 0.00 0.03 0.03 77 1020.1
20260830201545 27 167 0.0 0.0 0.00 0.03 0.03 78 1020.1
20260830201040 27 160 0.0 0.0 0.00 0.03 0.03 76 1020.1
20260830200536 27 115 0.0 0.0 0.00 0.03 0.03 77 1020.4
20260830200034 27 227 0.0 0.0 0.00 0.03 0.03 76 1020.4
20260830195530 27 148 0.0 0.0 0.00 0.03 0.03 75 1020.6
20260830195028 27 240 0.0 0.0 0.00 0.03 0.03 76 1020.7
20260830194528 26 155 0.0 0.0 0.00 0.03 0.03 79 1020.8
20260830194027 26 162 0.0 0.0 0.00 0.03 0.03 75 1021.0
20260830193527 26 337 0.0 0.0 0.00 0.03 0.03 79 1021.2
20260830193028 25 139 0.0 0.0 0.00 0.03 0.03 78 1020.9
20260830192523 25 176 0.0 0.0 0.00 0.03 0.03 81 1020.9
20260830192018 25 208 0.0 0.0 0.00 0.03 0.03 86 1020.7
20260830191514 23 249 0.0 0.0 0.00 0.03 0.03 82 1020.5
20260830191009 24 185 0.0 0.0 0.00 0.03 0.03 86 1020.7
20260830190504 25 257 0.0 0.0 0.00 0.03 0.03 83 1021.0
20260830190003 26 239 0.0 4.8 0.00 0.03 0.03 79 1021.4
20260830185458 26 306 0.0 3.2 0.00 0.03 0.03 84 1021.3
20260830184953 26 233 0.0 0.0 0.18 0.03 0.03 91 1020.8
20260830184452 28 247 0.0 0.0 0.00 0.00 0.00 80 1021.0
20260830183947 29 290 0.0 0.0 0.00 0.00 0.00 71 1020.8
20260830183442 30 244 0.0 0.0 0.00 0.00 0.00 66 1020.7
20260830182937 30 269 0.0 3.2 0.00 0.00 0.00 65 1021.0
20260830182433 31 180 0.0 0.0 0.00 0.00 0.00 64 1020.8
20260830181929 31 239 0.0 0.0 0.00 0.00 0.00 64 1020.8
20260830181424 31 347 0.0 0.0 0.00 0.00 0.00 64 1021.0
20260830180919 30 298 0.0 0.0 0.00 0.00 0.00 68 1021.1
20260830180418 30 251 0.0 0.0 0.00 0.00 0.00 69 1021.0
20260830175917 30 290 0.0 0.0 0.00 0.00 0.00 71 1021.0
20260830175411 30 305 0.0 0.0 0.00 0.00 0.00 70 1021.1
20260830174906 30 306 0.0 0.0 0.00 0.00 0.00 71 1021.2
20260830174402 29 324 0.0 0.0 0.00 0.00 0.00 74 1021.6
20260830173857 28 246 0.0 0.0 0.00 0.00 0.00 74 1021.6
20260830173352 28 294 0.0 0.0 0.00 0.00 0.00 75 1021.5
20260830172848 28 247 0.0 0.0 0.00 0.00 0.00 72 1022.0
20260830172344 30 301 0.0 0.0 0.00 0.00 0.00 73 1021.8
20260830171839 30 304 0.0 1.6 0.00 0.00 0.00 70 1021.8
20260830171335 29 311 0.0 1.6 0.00 0.00 0.00 72 1021.8
20260830170830 29 249 0.0 0.0 0.00 0.00 0.00 72 1022.0